This is the latest recevied weather packets stored in our database for station/object KD9ZDW. If no packets are shown the sender has not sent any weather packets the latest 10 day(s).
| Time | Temp. | Humidity | Pressure | Rain* | Wind** | Luminosity | Snow |
|---|---|---|---|---|---|---|---|
| 1777408874 | 15.56° C | 72% | 1015.7 hPa | 0 mm | - | 193 W/m² | - |
| 1777408571 | 15.56° C | 72% | 1015.9 hPa | 0 mm | - | 190 W/m² | - |
| 1777408266 | 15° C | 71% | 1015.7 hPa | 0 mm | - | 210 W/m² | - |
| 1777407966 | 15° C | 71% | 1015.8 hPa | 0 mm | - | 225 W/m² | - |
| 1777407664 | 15° C | 73% | 1015.7 hPa | 0 mm | - | 230 W/m² | - |
| 1777407364 | 15° C | 72% | 1016.1 hPa | 0 mm | - | 197 W/m² | - |
| 1777407058 | 15° C | 72% | 1015.8 hPa | 0 mm | - | 190 W/m² | - |
| 1777406754 | 15° C | 73% | 1015.8 hPa | 0 mm | - | 197 W/m² | - |
| 1777406449 | 15° C | 73% | 1016 hPa | 0 mm | - | 196 W/m² | - |
| 1777406149 | 14.44° C | 73% | 1016.2 hPa | 0 mm | - | 253 W/m² | - |
| 1777405845 | 14.44° C | 74% | 1016.3 hPa | 0 mm | - | 233 W/m² | - |
| 1777405542 | 14.44° C | 73% | 1016.3 hPa | 0 mm | - | 200 W/m² | - |
| 1777405239 | 14.44° C | 74% | 1016.1 hPa | 0 mm | - | 187 W/m² | - |
| 1777404938 | 15° C | 74% | 1016.1 hPa | 0 mm | - | 249 W/m² | - |
| 1777404634 | 14.44° C | 75% | 1016.1 hPa | 0 mm | - | 261 W/m² | - |
| 1777404330 | 14.44° C | 74% | 1016.3 hPa | 0 mm | - | 187 W/m² | - |
| 1777404027 | 14.44° C | 74% | 1016.2 hPa | 0 mm | - | 192 W/m² | - |
| 1777403722 | 14.44° C | 73% | 1016.2 hPa | 0 mm | - | 170 W/m² | - |
| 1777403420 | 15° C | 73% | 1016.3 hPa | 0 mm | - | 195 W/m² | - |
| 1777403115 | 15° C | 73% | 1016.2 hPa | 0 mm | - | 229 W/m² | - |
| 1777402811 | 15° C | 72% | 1016.2 hPa | 0 mm | - | 278 W/m² | - |
| 1777402509 | 15° C | 72% | 1016.1 hPa | 0 mm | - | 298 W/m² | - |
| 1777402206 | 14.44° C | 73% | 1016.2 hPa | 0 mm | - | 261 W/m² | - |
| 1777401906 | 15° C | 72% | 1016.2 hPa | 0 mm | - | 240 W/m² | - |
| 1777401604 | 15° C | 71% | 1016 hPa | 0 mm | - | 286 W/m² | - |
* Rain latest hour (hover to see other rain measurements)
** Current wind speed in m/s (hover to see current wind gust speed)